Terrell, TX

6:14 PM CDT on April 24, 2018 (GMT -0500)
Terrell Municipal

Weather History for KTRL - January, 2013

Change the Weather History Date:

Tuesday, January 1, 2013

  Actual Average (KGVT) Record (KGVT)
Temperature  
Mean Temperature 42 °F -  
Max Temperature 46 °F 57 °F 78 °F (2006)
Min Temperature 37 °F 40 °F 19 °F (2018)
Degree Days  
Heating Degree Days 24    
Moisture  
Dew Point 38 °F    
Average Humidity 83    
Maximum Humidity 93    
Minimum Humidity 73    
Precipitation  
Precipitation 0.00 in - - ()
Sea Level Pressure  
Sea Level Pressure 30.16 in    
Wind  
Wind Speed 8 mph (NNW)    
Max Wind Speed 14 mph    
Max Gust Speed 21 mph    
Visibility 8 miles    
Events Rain    
Averages and records for this station are not official NWS values.
T = Trace of Precipitation, MM = Missing Value Source: NWS Daily Summary

Daily Weather History Graph

Daily Weather History Graph

Search for Another Location

Airport or City:

Astronomy

Jan. 01, 2013 Rise Set
Actual Time 7:27 AM CST 5:30 PM CST
Civil Twilight 7:00 AM CST 5:57 PM CST
Nautical Twilight 6:29 AM CST 6:28 PM CST
Astronomical Twilight 5:59 AM CST 6:58 PM CST
Moon 9:46 PM CST (1/1) 9:54 AM CST (1/1)
Length of Visible Light 10h 57m
Length of Day
10h 02m
Waning Gibbous, 83% of the Moon is Illuminated
Jan 1
Waning Gibbous
Jan 4
Last Quarter
Jan 11
New
Jan 18
First Quarter
Jan 26
Full

Hourly Weather History & Observations

Time (CST) Temp. Windchill Dew Point Humidity Pressure Visibility Wind Dir Wind Speed Gust Speed Precip Events Conditions
12:04 AM 46.4 °F 45.2 °F 44.6 °F 93% 30.05 in 6.0 mi NNE 3.5 mph - N/A   Mostly Cloudy
12:40 AM 46.4 °F 43.5 °F 42.8 °F 87% 30.06 in 6.0 mi North 5.8 mph - N/A   Overcast
12:53 AM 45.0 °F 40.6 °F 43.0 °F 93% 30.05 in 6.0 mi NNE 8.1 mph - N/A   Overcast
1:05 AM 44.6 °F 38.8 °F 42.8 °F 93% 30.06 in 7.0 mi North 11.5 mph - N/A   Overcast
1:20 AM 44.6 °F 39.7 °F 41.0 °F 87% 30.06 in 8.0 mi NNE 9.2 mph - N/A   Overcast
1:28 AM 44.6 °F 40.7 °F 41.0 °F 87% 30.06 in 8.0 mi NNE 6.9 mph - N/A   Overcast
1:53 AM 44.1 °F 41.5 °F 41.0 °F 89% 30.06 in 7.0 mi NNE 4.6 mph - N/A   Overcast
3:53 AM 44.1 °F 40.8 °F 39.9 °F 85% 30.09 in 8.0 mi North 5.8 mph - N/A   Overcast
4:53 AM 43.0 °F 39.5 °F 39.9 °F 89% 30.06 in 7.0 mi NNW 5.8 mph - N/A   Overcast
5:48 AM 42.8 °F 39.3 °F 39.2 °F 87% 30.11 in 6.0 mi NW 5.8 mph - 0.00 in   Overcast
5:53 AM 43.0 °F 37.7 °F 39.9 °F 89% 30.11 in 6.0 mi NW 9.2 mph - 0.00 in   Overcast
6:53 AM 43.0 °F 37.7 °F 39.9 °F 89% 30.12 in 7.0 mi North 9.2 mph - 0.00 in   Overcast
7:10 AM 42.8 °F 38.0 °F 39.2 °F 87% 30.13 in 7.0 mi North 8.1 mph - 0.00 in   Overcast
7:53 AM 43.0 °F 37.7 °F 39.0 °F 86% 30.14 in 7.0 mi North 9.2 mph - 0.00 in   Overcast
8:53 AM 43.0 °F 37.7 °F 39.0 °F 86% 30.14 in 6.0 mi North 9.2 mph - 0.00 in Rain Light Rain
9:33 AM 42.8 °F 37.0 °F 39.2 °F 87% 30.20 in 8.0 mi NW 10.4 mph - 0.00 in   Overcast
9:53 AM 43.0 °F 36.8 °F 39.0 °F 86% 30.19 in 7.0 mi NNW 11.5 mph - 0.00 in   Overcast
10:53 AM 43.0 °F 36.0 °F 37.9 °F 82% 30.22 in 7.0 mi NNW 13.8 mph 20.7 mph N/A   Overcast
11:53 AM 43.0 °F 36.8 °F 37.0 °F 80% 30.21 in 7.0 mi NNW 11.5 mph 19.6 mph N/A   Overcast
12:53 PM 43.0 °F 37.2 °F 37.0 °F 80% 30.19 in 9.0 mi NNW 10.4 mph 18.4 mph N/A   Overcast
1:53 PM 43.0 °F 36.8 °F 37.0 °F 80% 30.18 in 10.0 mi NNW 11.5 mph - N/A   Overcast
2:53 PM 42.1 °F 35.2 °F 35.1 °F 76% 30.19 in 10.0 mi NNW 12.7 mph 20.7 mph N/A   Overcast
3:41 PM 42.8 °F 38.0 °F 35.6 °F 76% 30.20 in 9.0 mi NNW 8.1 mph - N/A   Overcast
3:53 PM 42.1 °F 36.1 °F 34.0 °F 73% 30.21 in 9.0 mi NNW 10.4 mph - N/A   Overcast
4:53 PM 42.1 °F 36.1 °F 34.0 °F 73% 30.23 in 8.0 mi NNW 10.4 mph - N/A   Overcast
5:53 PM 41.0 °F 35.8 °F 34.0 °F 76% 30.25 in 8.0 mi NNW 8.1 mph - N/A   Overcast
6:53 PM 39.9 °F 32.5 °F 33.1 °F 77% 30.26 in 7.0 mi NNW 12.7 mph - N/A   Overcast
7:53 PM 39.0 °F 34.0 °F 32.0 °F 76% 30.26 in 8.0 mi NNW 6.9 mph - N/A   Overcast
8:53 PM 39.0 °F 34.8 °F 32.0 °F 76% 30.27 in 8.0 mi NNW 5.8 mph - N/A   Overcast
9:53 PM 37.9 °F 32.7 °F 32.0 °F 79% 30.28 in 8.0 mi NW 6.9 mph - N/A   Overcast
10:53 PM 37.9 °F 32.1 °F 30.9 °F 76% 30.29 in 8.0 mi NW 8.1 mph - N/A   Overcast
11:53 PM 37.0 °F 31.6 °F 30.0 °F 76% 30.29 in 8.0 mi NNW 6.9 mph - N/A   Overcast